Location: Baggettsville
(36.4767°N, 86.7303°W)
Time: 18:05:54
(UTC+00:00)

N. Korean satellite - Pass Details

Date: 20 September 2021
Orbit: 450 x 495 km, 97.3° (Epoch: 15 October)

Event Time Altitude Azimuth Distance (km) Brightness Sun altitude
Rises 10:35:41 0° 20° (NNE) 2,510 10.6 -12.4°
Reaches altitude 10° 10:37:50 10° 29° (NNE) 1,637 9.8 -11.9°
Maximum altitude 10:41:08 37° 98° (E) 756 8.2 -11.3°
Drops below altitude 10° 10:44:26 10° 167° (SSE) 1,651 9.3 -10.6°
Sets 10:46:36 0° 176° (S) 2,533 10.2 -10.2°
